Location: Zagreb
(45.8000°N, 16.0000°E)
Time: 08:43:06
(UTC+02:00)

Courier 1B - Pass Details

Date: 17 August 2020
Orbit: 962 x 1209 km, 28.3° (Epoch: 27 September)

Event Time Altitude Azimuth Distance (km) Brightness Sun altitude
Rises 20:20:17 0° 249° (WSW) 4,041 11.5 -4.1°
Reaches altitude 10° 20:24:28 10° 229° (SW) 3,035 10.4 -4.7°
Maximum altitude 20:28:34 16° 195° (SSW) 2,584 9.6 -5.4°
Drops below altitude 10° 20:32:33 10° 161° (SSE) 2,932 9.6 -6.0°
Enters shadow 20:35:25 - 145° (SE) 3,555 9.9 -6.5°
Sets 20:36:29 0° 140° (SE) 3,832 - -6.6°
